Ana Sayfa
METAR-TAF:

METAR-TAF

Havaalanları :

Atoka Municipal Airport

Atoka, Oklahoma, Amerika Birleşik Devletleri

Enlem: 34-23-54N, Boylam: 096-08-53W, yükseklik: 180 m

Güncel hava durumu gözlemi

Rapor saat 09:35 UTC de 31 dakika önce yapıldı.
Rüzgar kuzeydan 5 kt
Sıcaklık 3°C
Nem 75%
Basınç 1025 hPa
Açık gökyüzü

METAR: KAQR 280935Z AUTO 36005KT CLR 03/M01 A3028 RMK AO2 T00301012 PWINO

Saat: 05:06 (10:06 UTC)


TAF: eksik

4.000'den fazla havaalanı için hava durumu gözlemleri ve tahminleri (METAR ve TAF raporları).

Kullanılabilir istasyonlar harita üzerinde sarı ve kırmızı noktalarla gösterilir.

İstasyonun adını görmek için fareyi noktanın üzerinde gezdirin.

Sonrasında hava gözlem ve tahminlerini görmek için tıklayın.

Haritayı değiştirmek için: yaklaştırmak için siyah artı işaretli yeşil düğmeye ve uzaklaştırmak için de eksi işaretli düğmeye hızla tıklayın; bitişik haritalar için yeşil okları kullanın.


METAR-TAF: